This demonstration page uses our WeatherBlox Daily Observations layout. Learn more.

Left ArrowRight Arrow

38.89511, -77.03637

Hourly Observations for August 7, 2022

Temp ( °F °C ) Dew Point ( °F °C ) Humidity (%) Winds ( mph kmh ) Pressure ( in mb ) Visibility ( mi km ) Precip ( " mm )
12:52 am 00:52 Mostly Cloudy 78 25.6 69 20.6 74 74 S 8 13 30.23 1024 10 16 0.00 0.00
1:52 am 01:52 Partly Cloudy 77 25 70 21.1 79 79 S 7 11 30.22 1023 10 16 0.00 0.00
2:52 am 02:52 Partly Cloudy 77 25 70 21.1 79 79 SSW 8 13 30.21 1023 10 16 0.00 0.00
3:52 am 03:52 Mostly Cloudy 77 25 70 21.1 79 79 SSW 9 15 30.20 1023 10 16 0.00 0.00
4:52 am 04:52 Mostly Cloudy 76 24.4 70 21.1 82 82 S 7 11 30.19 1022 10 16 0.00 0.00
5:52 am 05:52 Mostly Cloudy 76 24.4 70 21.1 82 82 SSW 8 13 30.20 1023 10 16 0.00 0.00
6:52 am 06:52 Mostly Cloudy 76 24.4 71 21.7 85 85 S 9 15 30.22 1023 10 16 0.00 0.00
7:52 am 07:52 Mostly Cloudy 77 25 72 22.2 85 85 S 8 13 30.23 1024 10 16 0.00 0.00
8:52 am 08:52 Mostly Cloudy 78 25.6 72 22.2 82 82 S 10 17 30.23 1024 10 16 0.00 0.00
9:52 am 09:52 Mostly Cloudy 81 27.2 73 22.8 77 77 S 12 19 30.22 1023 10 16 0.00 0.00
10:52 am 10:52 Mostly Cloudy 85 29.4 73 22.8 68 68 S 14 22 30.21 1023 10 16 0.00 0.00
11:52 am 11:52 Mostly Cloudy 86 30 74 23.3 67 67 S 16 26 30.20 1023 10 16 0.00 0.00
12:52 pm 12:52 Mostly Cloudy 88 31.1 74 23.3 63 63 S 15 24 30.18 1022 10 16 0.00 0.00
1:52 pm 13:52 Mostly Cloudy 89 31.7 74 23.3 61 61 S 15 24 30.17 1022 10 16 0.00 0.00
2:52 pm 14:52 Mostly Cloudy 89 31.7 73 22.8 59 59 S 14 22 30.15 1021 10 16 0.00 0.00
3:52 pm 15:52 Mostly Cloudy 89 31.7 73 22.8 59 59 S 13 20 30.12 1020 10 16 0.00 0.00
4:52 pm 16:52 Partly Cloudy 89 31.7 71 21.7 55 55 S 16 26 30.11 1020 10 16 0.00 0.00
5:52 pm 17:52 Partly Cloudy 89 31.7 70 21.1 53 53 S 15 24 30.10 1019 10 16 0.00 0.00
6:52 pm 18:52 Partly Cloudy 88 31.1 72 22.2 59 59 S 9 15 30.10 1019 10 16 0.00 0.00
7:52 pm 19:52 Partly Cloudy 86 30 73 22.8 65 65 S 13 20 30.12 1020 10 16 0.00 0.00
8:52 pm 20:52 Partly Cloudy 85 29.4 72 22.2 65 65 S 12 19 30.11 1020 10 16 0.00 0.00
9:52 pm 21:52 Partly Cloudy 84 28.9 73 22.8 70 70 S 10 17 30.12 1020 10 16 0.00 0.00
10:52 pm 22:52 Partly Cloudy 82 27.8 73 22.8 74 74 S 8 13 30.12 1020 10 16 0.00 0.00
11:52 pm 23:52 Mostly Clear 82 27.8 73 22.8 74 74 S 13 20 30.11 1020 10 16 0.00 0.00

Powered by AerisWeather